Regional Weather Roundup
Issued by NWS Upton, NY

Current Version | Previous Version | Graphics & Text | Print | Product List | Glossary Off
Versions: 1 2 3 4 5 6 7 8 9 10 11 12 13 14 15 16 17 18 19 20 21 22 23 24 25 26 27 28 29 30 31 32 33 34 35 36 37 38 39 40 41 42 43 44 45 46 47 48 49 50

000
ASUS41 KOKX 040808
RWROKX

REGIONAL WEATHER ROUNDUP
NATIONAL WEATHER SERVICE NEW YORK NY
400 AM EDT SAT JUL 04 2015

NOTE: "FAIR" INDICATES FEW OR NO CLOUDS BELOW 12,000 FEET WITH NO
SIGNIFICANT WEATHER AND/OR OBSTRUCTIONS TO VISIBILITY.

NYZ071-072-176-178-NJZ106-104-040900-
NEW YORK CITY METRO AREA


CITY           SKY/WX    TMP DP  RH WIND       PRES   REMARKS
CENTRAL PARK   CLOUDY    71  58  63 SE3       29.99S
LAGUARDIA APRT CLOUDY    71  56  58 S5        29.96S
KENNEDY INTL   CLOUDY    71  59  65 E3        29.97F
NEWARK/LIBERTY LGT RAIN  70  62  76 CALM      29.96S
BRNX BOT. GARD   N/A     68  57  68 N1        29.99R
TETERBORO      LGT RAIN  70  61  73 CALM      29.95S
$$

NYZ177-179-078>081-040900-
LONG ISLAND NEW YORK

CITY           SKY/WX    TMP DP  RH WIND       PRES   REMARKS
FARMINGDALE    CLOUDY    69  60  73 CALM      29.97F
ISLIP          CLOUDY    66  61  84 CALM      29.96F
SHIRLEY        CLOUDY    63  61  93 CALM      29.98F
WESTHAMPTON    CLOUDY    59  58  96 CALM      29.99F
MONTAUK POINT    N/A     64  61  90 CALM      30.00F
$$

NYZ052-065-067-040900-
HUDSON VALLEY

CITY           SKY/WX    TMP DP  RH WIND       PRES   REMARKS
WHITE PLAINS   DRIZZLE   65  60  84 CALM      29.97S
NEWBURGH       MOCLDY    66  61  82 CALM      29.98S
MONTGOMERY     CLOUDY    63  59  87 CALM      29.96F
POUGHKEEPSIE   CLOUDY    62  57  83 CALM      29.96S
ALBANY         CLOUDY    59  53  80 CALM      29.97S
$$

NJZ001-105-106-008-010-013-015-019>022-104-040900-
NEW JERSEY

CITY           SKY/WX    TMP DP  RH WIND       PRES   REMARKS
NEWARK/LIBERTY LGT RAIN  70  62  76 CALM      29.96S
TETERBORO      LGT RAIN  70  61  73 CALM      29.95S
CALDWELL       CLOUDY    67  62  84 CALM      29.97S
MORRISTOWN     CLOUDY    66  63  88 CALM      29.97S
SOMERVILLE     CLOUDY    66  64  93 CALM      29.94F
SUSSEX         CLOUDY    64  61  90 CALM      29.96F
ANDOVER          N/A     67  61  81 CALM      29.97S
TRENTON        LGT RAIN  67  63  87 E6        29.94F
MILLVILLE      CLOUDY    68  66  93 E5        29.92F
ATLANTIC CITY  CLOUDY    69  67  93 E3        29.93F
WRIGHTSTOWN    CLOUDY    65  65  98 E2        29.93S
TOMS RIVER     CLOUDY    64  63  94 CALM      29.95F
BELMAR         CLOUDY    68  61  77 E5        29.96S
$$

PAZ047>061-062-071-040900-
EASTERN PENNSYLVANIA

CITY           SKY/WX    TMP DP  RH WIND       PRES   REMARKS
PHILADELPHIA   CLOUDY    70  65  84 E3        29.94S
ALLENTOWN      CLOUDY    71  61  70 E3        29.94F
SCRANTON       CLOUDY    69  60  73 E3        29.95S
$$

CTZ002-004>006-009-010-012-RIZ004-006-007-MAZ004-011-015-040900-
SOUTHERN NEW ENGLAND
 IN CT

CITY           SKY/WX    TMP DP  RH WIND       PRES   REMARKS
BRADLEY INTL   CLOUDY    59  56  89 CALM      29.99S
HARTFORD       CLOUDY    63  59  87 SE7       29.99S
DANBURY        CLOUDY    63  56  78 CALM      30.00S
WTRBRY/OXFORD  CLOUDY    63  55  77 CALM      30.00F
BRIDGEPORT     CLOUDY    68  62  81 N5        29.98S
MERIDEN        CLOUDY    62  59  90 CALM      29.99S
NEW HAVEN      CLOUDY    64  61  90 CALM      29.98F
CHESTER        FAIR      61  59  94 CALM      30.01S
GROTON         MOCLDY    62  60  93 NE3       29.98F
WILLIMANTIC    CLOUDY    59  56  89 N3        30.01S

 IN RI

CITY           SKY/WX    TMP DP  RH WIND       PRES   REMARKS
PROVIDENCE     CLOUDY    63  60  90 CALM      30.01S
BLOCK ISLAND   CLOUDY    63  57  82 CALM      29.99F
WESTERLY       CLOUDY    60  58  92 CALM      30.00F

 IN MA

CITY           SKY/WX    TMP DP  RH WIND       PRES   REMARKS
BOSTON         MOCLDY    62  56  80 S7        30.01R
WORCESTER      PTCLDY    62  51  67 W8        30.02S
WESTFIELD      MOCLDY    56  53  90 CALM      30.00S
PROVINCETOWN   CLOUDY    61   5  11 S7        30.01F
NANTUCKET      CLOUDY    60  58  92 SE5       30.01F
$$

ANZ330-335-338-340-345-350-353-355-040900-
COASTAL MARINE OBSERVATIONS


STATION/POSITION TIME  SKY/WX   TEMP    WIND        PRES    VSBY  WAVE
                                AIR SEA DIR/SP/G                  HT/PER
                 (UTC)          (F)     (DEG/KT/KT) (MB)    (MI)  (FT/S)
NY HARB ENTRANCE 0750            70 70  120/  8/  8 1014.1          2/ 8
4S FIRE IS       0703               71                N/A           3/ 8
20S FIRE ISLAND  0750            69 68  100/  4/  4 1014.5          3/ 8
GREAT SOUTH BAY  NOT AVBL
23SW MTP         0750            67 66  110/  2/  4 1015.0          3/ 8
HUDSON CANYON    NOT AVBL
KINGS POINT      0700            69 66  160/  2/  2 1014.2
CENTRAL LI SOUND NOT AVBL
EASTERN LI SOUND 0700            64 63   30/  2/  2   N/A
ROBBINS REEF     0700            70     140/  6/  8 1013.5
$$


>>>>>>>>>>>>>>>>>>>>>>>>>>>> KEY <<<<<<<<<<<<<<<<<<<<<<<<<<<
>                                                          <
>     SKY/WX - SKY CONDITION/PRESENT WEATHER               <
>     TMP    - TEMPERATURE IN FAHRENHEIT                   <
>     DP     - DEWPOINT IN FAHRENHEIT                      <
>     RH     - RELATIVE HUMIDITY IN PERCENT                <
>     WIND   - DIRECTION AND SPEED IN MPH                  <
>     PRES   - MEAN SEA LEVEL PRESSURE IN INCHES OF HG     <
>     WCI    - WIND CHILL INDEX                            <
>     VSB    - VISIBILITY IN MILES                         <
>     HX     - HEAT INDEX                                  <
>     TC     - TEMPERATURE IN CELSIUS                      <
>     VRB    - VARIABLE WIND DIRECTION                     <
>                                                          <
>>>>>>>>>>>>>>>>>>>>>>>>>>>> KEY <<<<<<<<<<<<<<<<<<<<<<<<<<<





USA.gov is the U.S. government's official web portal to all federal, state and local government web resources and services.